Location: Arthez
(43.0833°N, 0.2500°W)
Time: 00:53:56
(UTC+00:00)

NOSS 3-1 (A) - Pass Details

Date: 06 June 2022
Orbit: 711 x 1501 km, 63.4° (Epoch: 21 May)

Event Time Altitude Azimuth Distance (km) Brightness Sun altitude
Rises 20:11:53 0° 325° (NW) 3,832 8.4 -5.9°
Reaches altitude 10° 20:14:36 10° 334° (NNW) 2,991 7.3 -6.3°
Maximum altitude 20:21:19 38° 41° (NE) 1,845 5.0 -7.3°
Drops below altitude 10° 20:29:07 10° 107° (ESE) 3,488 5.8 -8.3°
Enters shadow 20:30:12 - 110° (ESE) 3,817 6.0 -8.5°
